STARLINK-36914

Last updated on Fri Mar 27 2026 00:02:06 GMT+0000 (Coordinated Universal Time)

1 67942U 26037L 26085.50002314 .00117316 00000+0 19799-2 0 9997 2 67942 43.0001 96.6758 0001982 289.5889 347.5917 15.50518987 5907
UTC large
Height (km)
Speed (km/s)
/
Latitude / Longitude
Inclination (degrees)
Orbital Period (minutes)
Azimuth
Elevation
Range (km)
Doppler Factor

Next 0 passes for location: London (51.5072 / 0.1276)

Sorry there are no passes over London.